Lafayette, IN

8:27 AM EDT on June 22, 2017 (GMT -0400)
Purdue Univ

Weather History for KLAF - December, 2013

Change the Weather History Date:

Monday, December 23, 2013

  Actual Average Record
Temperature  
Mean Temperature 19 °F 28 °F  
Max Temperature 29 °F 35 °F 63 °F (2015)
Min Temperature 9 °F 21 °F -16 °F (1983)
Degree Days  
Heating Degree Days 46 37  
Month to date heating degree days 848 773  
Since 1 July heating degree days 2024 1874  
Cooling Degree Days 0 0  
Month to date cooling degree days 0 0  
Year to date cooling degree days 884 983  
Moisture  
Dew Point 15 °F    
Average Humidity 80    
Maximum Humidity 92    
Minimum Humidity 67    
Precipitation  
Precipitation T in 0.08 in 0.90 in (2015)
Month to date precipitation 2.58 1.94  
Year to date precipitation 40.06 36.01  
Sea Level Pressure  
Sea Level Pressure 30.35 in    
Wind  
Wind Speed 13 mph (West)    
Max Wind Speed 20 mph    
Max Gust Speed 25 mph    
Visibility 10 miles    
Events      
T = Trace of Precipitation, MM = Missing Value Source: NWS Daily Summary

Daily Weather History Graph

Daily Weather History Graph

Search for Another Location

Airport or City:

Trip Planner

Search our weather history database for the weather conditions in past years. The results will help you decide how hot, cold, wet, or windy it might be!

Date:

Astronomy

Dec. 23, 2013 Rise Set
Actual Time 8:08 AM EST 5:25 PM EST
Civil Twilight 7:37 AM EST 5:56 PM EST
Nautical Twilight 7:03 AM EST 6:30 PM EST
Astronomical Twilight 6:30 AM EST 7:04 PM EST
Moon 11:36 PM EST (12/23) 11:32 AM EST (12/23)
Length of Visible Light 10h 18m
Length of Day
9h 17m
Waning Gibbous, 68% of the Moon is Illuminated
Dec 23
Waning Gibbous
Dec 25
Last Quarter
Jan 1
New
Jan 7
First Quarter
Jan 15
Full

Hourly Weather History & Observations

Time (EST) Temp. Windchill Dew Point Humidity Pressure Visibility Wind Dir Wind Speed Gust Speed Precip Events Conditions
12:54 AM 28.9 °F 18.2 °F 25.0 °F 85% 30.14 in 10.0 mi WNW 13.8 mph - N/A   Overcast
1:54 AM 28.0 °F 18.6 °F 24.1 °F 85% 30.17 in 10.0 mi WNW 10.4 mph 21.9 mph N/A   Overcast
2:20 AM 28.0 °F 17.5 °F 24.1 °F 85% 30.15 in 9.0 mi WNW 12.7 mph - N/A   Overcast
2:54 AM 27.0 °F 16.7 °F 24.1 °F 89% 30.19 in 10.0 mi West 11.5 mph - N/A   Overcast
3:25 AM 27.0 °F 17.3 °F 21.9 °F 81% 30.18 in 10.0 mi West 10.4 mph - N/A   Overcast
3:41 AM 26.1 °F 16.8 °F 21.9 °F 84% 30.19 in 10.0 mi West 9.2 mph - N/A   Overcast
3:51 AM 26.6 °F 15.7 °F 21.2 °F 80% 30.20 in 10.0 mi West 12.7 mph - N/A   Overcast
3:54 AM 26.1 °F 15.6 °F 21.9 °F 84% 30.22 in 10.0 mi West 11.5 mph - N/A   Overcast
4:09 AM 26.1 °F 15.6 °F 21.9 °F 84% 30.20 in 10.0 mi West 11.5 mph - N/A   Overcast
4:54 AM 25.0 °F 12.6 °F 21.0 °F 85% 30.23 in 10.0 mi WNW 15.0 mph - N/A   Overcast
5:54 AM 24.1 °F 11.5 °F 19.9 °F 84% 30.26 in 10.0 mi West 15.0 mph 23.0 mph N/A   Overcast
6:54 AM 24.1 °F 12.5 °F 19.9 °F 84% 30.29 in 9.0 mi West 12.7 mph - N/A   Overcast
7:54 AM 23.0 °F 11.7 °F 19.0 °F 85% 30.32 in 8.0 mi West 11.5 mph - N/A   Overcast
8:54 AM 21.0 °F 8.1 °F 18.0 °F 88% 30.35 in 7.0 mi West 13.8 mph - N/A   Overcast
9:54 AM 21.0 °F 9.9 °F 17.1 °F 85% 30.39 in 10.0 mi West 10.4 mph - N/A   Overcast
10:54 AM 21.9 °F 8.7 °F 17.1 °F 82% 30.40 in 10.0 mi WNW 15.0 mph - N/A   Overcast
11:54 AM 23.0 °F 11.1 °F 17.1 °F 78% 30.40 in 10.0 mi West 12.7 mph - N/A   Overcast
12:54 PM 23.0 °F 12.4 °F 17.1 °F 78% 30.40 in 10.0 mi West 10.4 mph 20.7 mph N/A   Overcast
1:54 PM 24.1 °F 12.5 °F 17.1 °F 75% 30.38 in 10.0 mi West 12.7 mph - N/A   Overcast
2:54 PM 25.0 °F 14.2 °F 17.1 °F 72% 30.38 in 10.0 mi WSW 11.5 mph - N/A   Mostly Cloudy
3:54 PM 26.1 °F 15.6 °F 17.1 °F 69% 30.39 in 10.0 mi West 11.5 mph 19.6 mph N/A   Overcast
4:31 PM 24.1 °F 11.5 °F 14.0 °F 65% 30.37 in 10.0 mi West 15.0 mph 23.0 mph N/A   Scattered Clouds
4:54 PM 23.0 °F 10.1 °F 15.1 °F 72% 30.41 in 10.0 mi West 15.0 mph 23.0 mph N/A   Mostly Cloudy
5:35 PM 21.0 °F 8.1 °F 14.0 °F 74% 30.39 in 10.0 mi WNW 13.8 mph - N/A   Overcast
5:54 PM 19.9 °F 6.7 °F 14.0 °F 78% 30.43 in 10.0 mi WNW 13.8 mph - N/A   Mostly Cloudy
6:09 PM 19.9 °F 7.3 °F 12.9 °F 74% 30.40 in 10.0 mi WNW 12.7 mph - N/A   Mostly Cloudy
6:54 PM 19.0 °F 5.6 °F 10.9 °F 71% 30.44 in 10.0 mi West 13.8 mph - N/A   Overcast
7:54 PM 17.1 °F 3.6 °F 10.9 °F 77% 30.47 in 10.0 mi WNW 12.7 mph - N/A   Overcast
8:42 PM 14.0 °F -2.0 °F 7.0 °F 74% 30.46 in 10.0 mi WNW 16.1 mph 23.0 mph 0.00 in   Scattered Clouds
8:54 PM 14.0 °F -2.5 °F 5.0 °F 67% 30.48 in 10.0 mi West 17.3 mph - 0.00 in   Mostly Cloudy
9:17 PM 14.0 °F -0.2 °F 6.1 °F 71% 30.46 in 10.0 mi West 12.7 mph - N/A   Overcast
9:50 PM 10.4 °F -3.3 °F 3.2 °F 73% 30.47 in 10.0 mi WNW 10.4 mph 20.7 mph N/A   Scattered Clouds
9:54 PM 10.9 °F -4.7 °F 3.9 °F 73% 30.50 in 10.0 mi WNW 13.8 mph 20.7 mph N/A   Scattered Clouds
10:16 PM 10.9 °F -4.7 °F 3.9 °F 73% 30.46 in 10.0 mi West 13.8 mph 20.7 mph N/A   Mostly Cloudy
10:54 PM 10.0 °F -4.5 °F 3.0 °F 73% 30.50 in 10.0 mi WNW 11.5 mph - N/A   Mostly Cloudy
11:54 PM 10.0 °F -5.9 °F 3.0 °F 73% 30.50 in 10.0 mi WNW 13.8 mph - N/A   Overcast